CZ-6A DEB

Satellite information

Favourite Embed

Satellite Type and Status

DEBRISIN ORBIT

Key statistics

Satellite CZ-6A DEB at a glance.

Uptime

911

Days in orbit

Revolutions

≈ 14.1

Per day

Orbit

SSO

Sun Synchronous Orbit

Inclination

98.8

Latest

Satellite identification and parameters

Extended collection of information and parameters for CZ-6A DEB.

Object identification

Identified? True

Debris? True

Object name: CZ-6A DEB

International designator: 2022-151RB

Object number (NORAD): 54914

Object ID (CCSDS): 54914

Country: PEOPLES REPUBLIC OF CHINA (PRC)

Current information (Y/N): Y

RCS size: SMALL

Orbital parameters

Period: 101.992 minutes

Inclination: 98.7924 deg

SMA: 7231.116 km

Apoapsis: 883.361 km

Periapsis: 822.601 km

RAAN: 129.3224 deg

Eccentricy: 0.0042013

Argument of periapsis: 55.6687 deg

Mean anomaly: 304.8449 deg

Mean motion: 14.11870138 rev/day

Mean motion (dot): 0.00000255 rev/day2

B* drag term: 0.00016171 1/REarth

Two-line elements (TLE)

Creation date: May 9, 2025, 2:46 a.m.

Reference frame: TEME

Reference center: EARTH

Epoch: May 7, 2025, 11:25 p.m. UTC

TLE line 0: 0 CZ-6A DEB

TLE line 1: 1 54914U 22151RB 25127.97617280 .00000255 00000-0 16171-3 0 9992

TLE line 2: 2 54914 98.7924 129.3224 0042013 55.6687 304.8449 14.11870138127538

Live tracking on map

Real-time ground track for satellite CZ-6A DEB.

In-orbit conjunctions

A list of the most updated potential collisions computed for object CZ-6A DEB.

Target Orbit TCA Probability of collision Miss distance Type
METEOR 1-17 DEB LEO 2024-11-11 06:45:26 0.0006327079 476.0 (m) DEBRIS
FENGYUN 1C DEB SSO 2024-06-13 12:23:00 0.0002204781 171.0 (m) DEBRIS

Associated space launch

Chinese satellite reported for atmospheric/ocean/environmental/spatial parameter research purposes, details TBD.

CZ-6A DEB was lifted into orbit during the mission ‘Long March 6A | Yunhai 3’, on board a Long March 6A space rocket.

The launch took place on Nov. 11, 2022, 10:52 p.m. from Launch Complex 9A.

For more information about the launch, click the button.

Launch to space Long March 6A | Yunhai 3
Long March 6A | Yunhai 3

Agency: N/A

Status: Launch Successful

Launch date: Nov. 11, 2022, 10:52 p.m. UTC

Rocket: Long March 6A

Launch pad: Launch Complex 9A

Location: Taiyuan Satellite Launch Center, People's Republic of China

...

Latest news about this satellite

There are no fresh news available about this satellite. Check back as we update our databases every day.


Newsletter sign-up

Weekly statistics, charts and insights to help you stay on top of the space industry.